This is the latest recevied weather packets stored in our database for station/object KG5WBN. If no packets are shown the sender has not sent any weather packets the latest 10 day(s).
| Time | Temp. | Humidity | Pressure | Rain* | Wind** | Luminosity | Snow |
|---|---|---|---|---|---|---|---|
| 1788523366 | 23.33° C | 99% | 1013.5 hPa | 0 mm | - | 0 W/m² | - |
| 1788523061 | 23.33° C | 99% | 1013.5 hPa | 1.78 mm | - | 0 W/m² | - |
| 1788522756 | 23.33° C | 99% | 1013.5 hPa | 22.86 mm | - | 0 W/m² | - |
| 1788522450 | 22.78° C | 99% | 1013.5 hPa | 46.23 mm | - | 0 W/m² | - |
| 1788522145 | 23.33° C | 99% | 1013.5 hPa | 36.58 mm | - | 0 W/m² | - |
| 1788521840 | 23.33° C | 99% | 1013.5 hPa | 25.91 mm | - | 0 W/m² | - |
| 1788521539 | 23.33° C | 99% | 1013.5 hPa | 15.49 mm | - | 0 W/m² | - |
| 1788521234 | 23.33° C | 94% | 1013.2 hPa | 18.54 mm | - | 0 W/m² | - |
| 1788520930 | 24.44° C | 87% | 1013.2 hPa | 22.86 mm | - | 0 W/m² | - |
| 1788520625 | 25.56° C | 81% | 1012.9 hPa | 6.1 mm | - | 0 W/m² | - |
| 1788520320 | 25.56° C | 79% | 1013.2 hPa | 0 mm | - | 0 W/m² | - |
| 1788520016 | 25.56° C | 80% | 1013.2 hPa | 0 mm | - | 0 W/m² | - |
| 1788519715 | 26.11° C | 81% | 1013.2 hPa | 0 mm | - | 0 W/m² | - |
| 1788519410 | 26.11° C | 86% | 1013.2 hPa | 0 mm | - | 0 W/m² | - |
| 1788519105 | 26.11° C | 93% | 1013.2 hPa | 0 mm | - | 0 W/m² | - |
| 1788518801 | 26.67° C | 95% | 1012.9 hPa | 0 mm | - | 0 W/m² | - |
| 1788518496 | 26.67° C | 94% | 1012.9 hPa | 0 mm | - | 0 W/m² | - |
| 1788518192 | 26.67° C | 94% | 1012.9 hPa | 0 mm | - | 0 W/m² | - |
| 1788517888 | 26.67° C | 94% | 1012.9 hPa | 0 mm | - | 0 W/m² | - |
| 1788517584 | 26.67° C | 93% | 1012.9 hPa | 0 mm | - | 0 W/m² | - |
| 1788517278 | 26.67° C | 93% | 1012.5 hPa | 0 mm | - | 0 W/m² | - |
| 1788516975 | 26.67° C | 93% | 1012.5 hPa | 0 mm | - | 0 W/m² | - |
| 1788516670 | 26.67° C | 93% | 1012.5 hPa | 0 mm | - | 0 W/m² | - |
| 1788516385 | 26.67° C | 93% | 1012.5 hPa | 0 mm | - | 0 W/m² | - |
| 1788516061 | 26.67° C | 92% | 1012.9 hPa | 0 mm | - | 0 W/m² | - |
* Rain latest hour (hover to see other rain measurements)
** Current wind speed in m/s (hover to see current wind gust speed)